Natchitoches, LA

7:47 PM CDT on October 22, 2019 (GMT -0500)
Natchitoches Regional

Weather History for KIER - August, 2019

Change the Weather History Date:

Wednesday, August 7, 2019

  Actual Average Record
Temperature  
Mean Temperature 87 °F -  
Max Temperature 98 °F 94 °F 107 °F (1962)
Min Temperature 76 °F 72 °F 59 °F (1957)
Cooling Degree Days 22    
Growing Degree Days 37 (Base 50)    
Moisture  
Dew Point 76 °F    
Average Humidity 73    
Maximum Humidity 99    
Minimum Humidity 46    
Precipitation  
Precipitation 0.00 in - - ()
Sea Level Pressure  
Sea Level Pressure 29.93 in    
Wind  
Wind Speed 3 mph (SW)    
Max Wind Speed 9 mph    
Max Gust Speed -    
Visibility 10 miles    
Events      
Averages and records for this station are not official NWS values.
T = Trace of Precipitation, MM = Missing Value Source: NWS Daily Summary

Daily Weather History Graph

Daily Weather History Graph

Search for Another Location

Airport or City:

Astronomy

Aug. 07, 2019 Rise Set
Actual Time 6:32 AM CDT 8:03 PM CDT
Civil Twilight 6:05 AM CDT 8:30 PM CDT
Nautical Twilight 5:34 AM CDT 9:01 PM CDT
Astronomical Twilight 5:01 AM CDT 9:34 PM CDT
Moon 1:37 PM CDT (8/7) 12:14 AM CDT (8/7)
Length of Visible Light 14h 24m
Length of Day
13h 31m
Waxing Crescent, 50% of the Moon is Illuminated
Aug 7
Waxing Crescent
Aug 7
First Quarter
Aug 15
Full
Aug 23
Last Quarter
Aug 30
New

Hourly Weather History & Observations

Time (CDT) Temp. Heat Index Dew Point Humidity Pressure Visibility Wind Dir Wind Speed Gust Speed Precip Events Conditions
12:15 AM 79.3 °F - 77.5 °F 94% 29.93 in 10.0 mi Calm Calm - N/A   Clear
12:35 AM 79.2 °F - 77.5 °F 95% 29.94 in 10.0 mi SE 3.5 mph - N/A   Clear
12:55 AM 78.8 °F - 77.0 °F 94% 29.94 in 10.0 mi Calm Calm - N/A   Clear
1:15 AM 78.8 °F - 77.0 °F 94% 29.94 in 10.0 mi South 3.5 mph - N/A   Clear
1:35 AM 78.1 °F - 76.8 °F 96% 29.94 in 10.0 mi Calm Calm - N/A   Clear
1:55 AM 78.3 °F - 77.0 °F 96% 29.93 in 10.0 mi Calm Calm - N/A   Clear
2:15 AM 78.4 °F - 76.8 °F 95% 29.93 in 10.0 mi Calm Calm - N/A   Clear
2:35 AM 78.1 °F - 76.8 °F 96% 29.93 in 10.0 mi Calm Calm - N/A   Clear
2:55 AM 78.1 °F - 76.6 °F 95% 29.92 in 10.0 mi South 3.5 mph - N/A   Clear
3:15 AM 77.9 °F - 76.6 °F 96% 29.92 in 10.0 mi SW 3.5 mph - N/A   Clear
3:35 AM 77.5 °F - 76.5 °F 96% 29.92 in 10.0 mi Calm Calm - N/A   Clear
3:55 AM 77.9 °F - 76.6 °F 96% 29.92 in 10.0 mi SW 3.5 mph - N/A   Clear
4:15 AM 77.5 °F - 76.5 °F 96% 29.93 in 10.0 mi Calm Calm - N/A   Clear
4:35 AM 77.2 °F - 76.3 °F 97% 29.93 in 10.0 mi Calm Calm - N/A   Clear
4:55 AM 77.0 °F - 76.1 °F 97% 29.93 in 10.0 mi Calm Calm - N/A   Clear
5:15 AM 76.8 °F - 76.1 °F 98% 29.94 in 10.0 mi Calm Calm - N/A   Clear
5:35 AM 77.0 °F - 76.3 °F 98% 29.94 in 10.0 mi Calm Calm - N/A   Clear
5:55 AM 76.5 °F - 76.1 °F 99% 29.95 in 7.0 mi Calm Calm - N/A   Clear
6:15 AM 76.5 °F - 76.1 °F 99% 29.96 in 10.0 mi Calm Calm - N/A   Clear
6:35 AM 76.5 °F - 76.1 °F 99% 29.96 in 7.0 mi Calm Calm - N/A   Clear
6:55 AM 76.5 °F - 76.1 °F 99% 29.96 in 7.0 mi Calm Calm - N/A   Clear
7:15 AM 77.0 °F - 76.1 °F 97% 29.96 in 7.0 mi Calm Calm - N/A   Clear
7:35 AM 78.3 °F - 77.0 °F 96% 29.96 in 10.0 mi SSW 3.5 mph - N/A   Clear
7:55 AM 80.4 °F 86.8 °F 77.2 °F 90% 29.96 in 10.0 mi SSW 3.5 mph - N/A   Clear
8:15 AM 82.9 °F 92.8 °F 77.9 °F 85% 29.96 in 10.0 mi Calm Calm - N/A   Clear
8:35 AM 84.4 °F 95.4 °F 78.1 °F 81% 29.96 in 10.0 mi WSW 3.5 mph - N/A   Clear
9:15 AM 86.2 °F 97.4 °F 77.0 °F 74% 29.96 in 10.0 mi West 8.1 mph - N/A   Clear
9:35 AM 87.4 °F 98.7 °F 76.6 °F 70% 29.97 in 10.0 mi WNW 9.2 mph - N/A   Clear
9:55 AM 87.8 °F 99.1 °F 76.6 °F 69% 29.97 in 10.0 mi WSW 6.9 mph - N/A   Scattered Clouds
10:15 AM 90.1 °F 103.0 °F 77.0 °F 65% 29.98 in 10.0 mi WSW 5.8 mph - N/A   Scattered Clouds
10:35 AM 89.6 °F 101.6 °F 76.6 °F 65% 29.98 in 10.0 mi WNW 6.9 mph - N/A   Scattered Clouds
10:55 AM 91.6 °F 104.9 °F 77.0 °F 62% 29.97 in 10.0 mi WSW 5.8 mph - N/A   Overcast
11:15 AM 91.9 °F 103.9 °F 75.7 °F 59% 29.98 in 10.0 mi WSW 5.8 mph - N/A   Mostly Cloudy
11:35 AM 91.9 °F 103.2 °F 75.0 °F 58% 29.98 in 10.0 mi West 6.9 mph - N/A   Scattered Clouds
11:55 AM 93.2 °F 105.0 °F 75.4 °F 56% 29.97 in 10.0 mi SW 6.9 mph - N/A   Scattered Clouds
12:15 PM 93.6 °F 105.9 °F 75.9 °F 56% 29.97 in 10.0 mi West 4.6 mph - N/A   Mostly Cloudy
12:35 PM 93.7 °F 106.4 °F 75.9 °F 56% 29.96 in 10.0 mi SW 5.8 mph - N/A   Scattered Clouds
12:55 PM 95.0 °F 106.7 °F 74.8 °F 52% 29.96 in 10.0 mi West 5.8 mph - N/A   Mostly Cloudy
1:15 PM 95.0 °F 106.7 °F 74.7 °F 52% 29.95 in 10.0 mi NW 3.5 mph - N/A   Mostly Cloudy
1:35 PM 96.3 °F 107.5 °F 74.5 °F 49% 29.95 in 10.0 mi SW 4.6 mph - N/A   Mostly Cloudy
1:55 PM 96.8 °F 108.8 °F 74.5 °F 49% 29.94 in 10.0 mi SW 6.9 mph - N/A   Mostly Cloudy
2:15 PM 96.8 °F 108.8 °F 75.0 °F 49% 29.94 in 10.0 mi WSW 3.5 mph - N/A   Scattered Clouds
2:35 PM 95.0 °F 105.9 °F 74.1 °F 51% 29.93 in 10.0 mi WSW 4.6 mph - N/A   Mostly Cloudy
2:55 PM 96.8 °F 107.3 °F 73.6 °F 47% 29.92 in 10.0 mi SW 6.9 mph - N/A   Scattered Clouds
3:15 PM 96.3 °F 106.8 °F 73.9 °F 48% 29.91 in 10.0 mi SSW 4.6 mph - N/A   Scattered Clouds
3:35 PM 95.2 °F 106.4 °F 74.5 °F 51% 29.90 in 10.0 mi SW 6.9 mph - N/A   Scattered Clouds
3:55 PM 96.6 °F 106.1 °F 72.7 °F 46% 29.90 in 10.0 mi WSW 4.6 mph - N/A   Scattered Clouds
4:15 PM 98.1 °F 111.2 °F 75.0 °F 48% 29.89 in 10.0 mi South 6.9 mph - N/A   Clear
4:35 PM 97.9 °F 109.1 °F 73.8 °F 46% 29.89 in 10.0 mi SSW 4.6 mph - N/A   Scattered Clouds
4:55 PM 97.3 °F 107.8 °F 73.4 °F 46% 29.88 in 10.0 mi WSW 4.6 mph - N/A   Clear
5:15 PM 96.8 °F 107.3 °F 73.8 °F 47% 29.88 in 10.0 mi SW 6.9 mph - N/A   Scattered Clouds
5:35 PM 96.3 °F 106.0 °F 73.0 °F 47% 29.88 in 10.0 mi SW 8.1 mph - N/A   Mostly Cloudy
5:55 PM 97.2 °F 107.4 °F 73.0 °F 46% 29.88 in 10.0 mi SW 5.8 mph - N/A   Scattered Clouds
6:15 PM 96.8 °F 106.6 °F 73.0 °F 46% 29.88 in 10.0 mi SW 3.5 mph - N/A   Clear
6:35 PM 96.1 °F 105.6 °F 72.7 °F 47% 29.87 in 10.0 mi SW 5.8 mph - N/A   Clear
6:55 PM 94.8 °F 104.1 °F 72.9 °F 49% 29.87 in 10.0 mi SSW 5.8 mph - N/A   Clear
7:15 PM 93.6 °F 102.5 °F 72.7 °F 51% 29.87 in 10.0 mi SW 3.5 mph - N/A   Clear
7:35 PM 92.3 °F 100.9 °F 73.0 °F 53% 29.88 in 10.0 mi SW 4.6 mph - N/A   Clear
7:55 PM 89.6 °F 98.2 °F 73.4 °F 59% 29.88 in 10.0 mi Calm Calm - N/A   Clear
8:15 PM 86.4 °F 95.1 °F 74.8 °F 68% 29.88 in 10.0 mi Calm Calm - N/A   Clear
8:35 PM 85.1 °F 93.7 °F 75.0 °F 72% 29.88 in 10.0 mi SSW 3.5 mph - N/A   Clear
8:55 PM 84.6 °F 93.9 °F 76.1 °F 76% 29.88 in 10.0 mi Calm Calm - N/A   Clear
9:15 PM 84.6 °F 93.9 °F 76.1 °F 76% 29.89 in 10.0 mi South 4.6 mph - N/A   Clear
9:35 PM 83.5 °F 91.9 °F 76.1 °F 78% 29.90 in 10.0 mi SSE 5.8 mph - N/A   Clear
9:55 PM 83.5 °F 92.9 °F 77.2 °F 81% 29.90 in 10.0 mi South 6.9 mph - N/A   Clear
10:15 PM 83.1 °F 92.6 °F 77.4 °F 83% 29.91 in 10.0 mi South 4.6 mph - N/A   Clear
10:35 PM 82.8 °F 92.2 °F 77.7 °F 85% 29.91 in 10.0 mi South 4.6 mph - N/A   Clear
10:55 PM 82.4 °F 91.5 °F 77.9 °F 86% 29.91 in 10.0 mi South 4.6 mph - N/A   Clear
11:15 PM 81.7 °F 90.0 °F 77.9 °F 88% 29.91 in 10.0 mi South 4.6 mph - N/A   Clear
11:35 PM 81.9 °F 90.5 °F 77.9 °F 88% 29.91 in 10.0 mi South 3.5 mph - N/A   Clear
11:55 PM 81.5 °F 89.7 °F 77.9 °F 89% 29.92 in 10.0 mi South 5.8 mph - N/A   Clear